TimeCDT,TemperatureF,Dew PointF,Humidity,Sea Level PressureIn,VisibilityMPH,Wind Direction,Wind SpeedMPH,Gust SpeedMPH,PrecipitationIn,Events,Conditions,WindDirDegrees,DateUTC
12:15 AM,75.2,73.4,94,29.80,10.0,East,11.5,-,N/A,,Overcast,90,2012-10-17 05:15:00
12:35 AM,77.0,73.4,89,29.79,10.0,SSE,6.9,-,N/A,,Overcast,150,2012-10-17 05:35:00
12:55 AM,77.0,73.4,89,29.78,10.0,SSE,6.9,-,N/A,,Mostly Cloudy,150,2012-10-17 05:55:00
1:15 AM,77.0,73.4,89,29.78,10.0,SSE,9.2,-,N/A,,Scattered Clouds,160,2012-10-17 06:15:00
1:35 AM,78.8,71.6,78,29.78,10.0,SSE,10.4,-,N/A,,Mostly Cloudy,160,2012-10-17 06:35:00
1:55 AM,78.8,71.6,78,29.77,10.0,SSE,11.5,-,N/A,,Mostly Cloudy,160,2012-10-17 06:55:00
2:15 AM,78.8,71.6,78,29.77,10.0,South,12.7,-,N/A,,Scattered Clouds,170,2012-10-17 07:15:00
2:35 AM,78.8,73.4,83,29.77,10.0,South,9.2,-,N/A,,Scattered Clouds,170,2012-10-17 07:35:00
2:55 AM,78.8,71.6,78,29.77,10.0,South,9.2,-,N/A,,Mostly Cloudy,180,2012-10-17 07:55:00
3:15 AM,78.8,71.6,78,29.77,10.0,South,10.4,-,N/A,,Mostly Cloudy,180,2012-10-17 08:15:00
3:35 AM,78.8,71.6,78,29.76,10.0,South,11.5,-,N/A,,Mostly Cloudy,190,2012-10-17 08:35:00
3:55 AM,78.8,71.6,78,29.76,10.0,South,12.7,-,N/A,,Scattered Clouds,190,2012-10-17 08:55:00
4:15 AM,78.8,71.6,78,29.75,10.0,South,11.5,-,N/A,,Scattered Clouds,190,2012-10-17 09:15:00
4:35 AM,77.0,71.6,83,29.75,10.0,South,13.8,-,N/A,,Scattered Clouds,190,2012-10-17 09:35:00
4:55 AM,77.0,71.6,83,29.75,10.0,South,11.5,19.6,N/A,,Scattered Clouds,190,2012-10-17 09:55:00
5:15 AM,77.0,71.6,83,29.75,10.0,South,10.4,-,N/A,,Clear,190,2012-10-17 10:15:00
5:35 AM,77.0,71.6,83,29.75,10.0,South,11.5,17.3,N/A,,Clear,190,2012-10-17 10:35:00
5:55 AM,77.0,71.6,83,29.75,10.0,South,11.5,-,N/A,,Clear,190,2012-10-17 10:55:00
6:15 AM,77.0,71.6,83,29.76,10.0,South,10.4,-,N/A,,Scattered Clouds,190,2012-10-17 11:15:00
6:55 AM,77.0,73.4,89,29.76,10.0,SSW,9.2,-,N/A,,Mostly Cloudy,200,2012-10-17 11:55:00
7:15 AM,77.0,73.4,89,29.76,10.0,SSW,8.1,-,N/A,,Scattered Clouds,200,2012-10-17 12:15:00
7:35 AM,77.0,73.4,89,29.77,10.0,SSW,10.4,-,N/A,,Clear,200,2012-10-17 12:35:00
7:55 AM,77.0,73.4,89,29.77,10.0,SSW,11.5,-,N/A,,Clear,200,2012-10-17 12:55:00
8:15 AM,78.8,73.4,83,29.77,10.0,South,11.5,16.1,N/A,,Clear,190,2012-10-17 13:15:00
8:35 AM,78.8,73.4,83,29.77,10.0,South,10.4,-,N/A,,Clear,190,2012-10-17 13:35:00
8:55 AM,80.6,73.4,79,29.78,10.0,SSW,12.7,17.3,N/A,,Clear,200,2012-10-17 13:55:00
9:15 AM,80.6,73.4,79,29.78,10.0,South,12.7,21.9,N/A,,Clear,190,2012-10-17 14:15:00
9:35 AM,80.6,73.4,79,29.78,10.0,SSW,17.3,23.0,N/A,,Scattered Clouds,200,2012-10-17 14:35:00
9:55 AM,80.6,71.6,74,29.78,10.0,SSW,15.0,20.7,N/A,,Scattered Clouds,200,2012-10-17 14:55:00
10:15 AM,82.4,73.4,74,29.78,10.0,South,16.1,24.2,N/A,,Mostly Cloudy,190,2012-10-17 15:15:00
10:35 AM,82.4,73.4,74,29.78,10.0,South,19.6,24.2,N/A,,Scattered Clouds,190,2012-10-17 15:35:00
10:55 AM,82.4,71.6,70,29.78,10.0,South,19.6,25.3,N/A,,Clear,190,2012-10-17 15:55:00
11:15 AM,82.4,71.6,70,29.77,10.0,South,19.6,25.3,N/A,,Clear,190,2012-10-17 16:15:00
11:35 AM,82.4,71.6,70,29.77,10.0,South,20.7,28.8,N/A,,Clear,190,2012-10-17 16:35:00
12:15 PM,82.4,71.6,70,29.75,10.0,South,21.9,25.3,N/A,,Clear,190,2012-10-17 17:15:00
12:35 PM,82.4,73.4,74,29.75,10.0,South,18.4,25.3,N/A,,Clear,190,2012-10-17 17:35:00
12:55 PM,82.4,73.4,74,29.73,10.0,South,19.6,26.5,N/A,,Clear,190,2012-10-17 17:55:00
1:15 PM,82.4,73.4,74,29.72,10.0,South,17.3,24.2,N/A,,Clear,190,2012-10-17 18:15:00
1:35 PM,82.4,73.4,74,29.71,10.0,South,15.0,26.5,N/A,,Clear,190,2012-10-17 18:35:00
1:55 PM,82.4,73.4,74,29.70,10.0,South,16.1,24.2,N/A,,Clear,190,2012-10-17 18:55:00
2:15 PM,82.4,73.4,74,29.69,10.0,South,17.3,21.9,N/A,,Clear,190,2012-10-17 19:15:00
2:35 PM,82.4,73.4,74,29.68,10.0,South,16.1,20.7,N/A,,Clear,180,2012-10-17 19:35:00
2:55 PM,84.2,73.4,70,29.68,10.0,South,10.4,20.7,N/A,,Clear,180,2012-10-17 19:55:00
3:15 PM,82.4,73.4,74,29.67,10.0,South,11.5,20.7,N/A,,Clear,170,2012-10-17 20:15:00
3:35 PM,82.4,73.4,74,29.66,10.0,South,12.7,19.6,N/A,,Clear,170,2012-10-17 20:35:00
3:55 PM,82.4,73.4,74,29.66,10.0,South,13.8,-,N/A,,Clear,170,2012-10-17 20:55:00
4:15 PM,82.4,73.4,74,29.65,10.0,South,13.8,-,N/A,,Clear,170,2012-10-17 21:15:00
4:35 PM,82.4,73.4,74,29.65,10.0,South,16.1,20.7,N/A,,Clear,170,2012-10-17 21:35:00
4:55 PM,82.4,73.4,74,29.64,10.0,South,15.0,-,N/A,,Clear,170,2012-10-17 21:55:00
5:15 PM,82.4,75.2,79,29.65,10.0,South,16.1,20.7,N/A,,Clear,170,2012-10-17 22:15:00
5:35 PM,80.6,73.4,79,29.65,7.0,SSE,13.8,19.6,N/A,,Clear,160,2012-10-17 22:35:00
5:55 PM,80.6,73.4,79,29.64,7.0,South,13.8,20.7,N/A,,Clear,170,2012-10-17 22:55:00
6:15 PM,80.6,73.4,79,29.64,7.0,South,15.0,21.9,N/A,,Clear,170,2012-10-17 23:15:00
6:55 PM,78.8,73.4,83,29.65,7.0,South,13.8,19.6,N/A,,Clear,170,2012-10-17 23:55:00
7:15 PM,78.8,73.4,83,29.65,7.0,South,12.7,19.6,N/A,,Clear,170,2012-10-18 00:15:00
7:35 PM,78.8,73.4,83,29.66,10.0,South,11.5,18.4,N/A,,Clear,170,2012-10-18 00:35:00
7:55 PM,78.8,73.4,83,29.67,7.0,South,12.7,17.3,N/A,,Clear,170,2012-10-18 00:55:00
8:15 PM,78.8,73.4,83,29.68,7.0,South,11.5,17.3,N/A,,Clear,170,2012-10-18 01:15:00
8:35 PM,78.8,75.2,89,29.69,7.0,South,12.7,17.3,N/A,,Clear,170,2012-10-18 01:35:00
8:55 PM,78.8,75.2,89,29.70,7.0,South,11.5,-,N/A,,Clear,170,2012-10-18 01:55:00
9:15 PM,78.8,75.2,89,29.70,7.0,South,9.2,-,N/A,,Clear,180,2012-10-18 02:15:00
9:35 PM,78.8,75.2,89,29.71,7.0,South,10.4,16.1,N/A,,Clear,170,2012-10-18 02:35:00
9:55 PM,78.8,75.2,89,29.72,7.0,South,10.4,17.3,N/A,,Clear,180,2012-10-18 02:55:00
10:15 PM,78.8,75.2,89,29.72,7.0,South,9.2,16.1,N/A,,Clear,180,2012-10-18 03:15:00
10:35 PM,78.8,75.2,89,29.72,7.0,South,9.2,-,N/A,,Clear,180,2012-10-18 03:35:00
10:55 PM,78.8,75.2,89,29.73,7.0,South,9.2,-,N/A,,Clear,180,2012-10-18 03:55:00
11:15 PM,78.8,75.2,89,29.73,7.0,South,9.2,-,N/A,,Clear,180,2012-10-18 04:15:00
11:35 PM,78.8,77.0,94,29.72,7.0,South,13.8,-,N/A,,Clear,180,2012-10-18 04:35:00
11:55 PM,78.8,77.0,94,29.71,7.0,South,16.1,-,N/A,,Clear,190,2012-10-18 04:55:00